This is the latest recevied weather packets stored in our database for station/object E7HQ-1. If no packets are shown the sender has not sent any weather packets the latest 10 day(s).
| Time | Temp. | Humidity | Pressure | Rain* | Wind** | Luminosity | Snow |
|---|---|---|---|---|---|---|---|
| 1777948136 | 12.78° C | 46% | 1027.3 hPa | - | - | - | - |
| 1777947236 | 13.33° C | 46% | 1027.3 hPa | - | - | - | - |
| 1777946336 | 13.33° C | 44% | 1027.3 hPa | - | - | - | - |
| 1777945435 | 13.89° C | 43% | 1027.3 hPa | - | - | - | - |
| 1777944535 | 13.89° C | 41% | 1027.3 hPa | - | - | - | - |
| 1777943635 | 14.44° C | 40% | 1027.2 hPa | - | - | - | - |
| 1777942735 | 14.44° C | 37% | 1027.2 hPa | - | - | - | - |
| 1777941835 | 13.89° C | 41% | 1027.3 hPa | - | - | - | - |
| 1777940934 | 14.44° C | 45% | 1027.4 hPa | - | - | - | - |
| 1777940034 | 14.44° C | 41% | 1027.5 hPa | - | - | - | - |
| 1777939134 | 15° C | 40% | 1027.6 hPa | - | - | - | - |
| 1777938233 | 15° C | 36% | 1027.7 hPa | - | - | - | - |
| 1777937338 | 15° C | 39% | 1027.7 hPa | - | - | - | - |
| 1777936438 | 15° C | 41% | 1027.8 hPa | - | - | - | - |
| 1777935538 | 15° C | 40% | 1027.8 hPa | - | - | - | - |
| 1777934637 | 15° C | 44% | 1027.8 hPa | - | - | - | - |
| 1777933737 | 15° C | 45% | 1027.8 hPa | - | - | - | - |
| 1777932837 | 15.56° C | 43% | 1027.8 hPa | - | - | - | - |
| 1777931937 | 15.56° C | 39% | 1027.8 hPa | - | - | - | - |
| 1777931036 | 15.56° C | 36% | 1027.7 hPa | - | - | - | - |
| 1777930136 | 16.11° C | 35% | 1027.7 hPa | - | - | - | - |
| 1777929236 | 16.11° C | 26% | 1027.8 hPa | - | - | - | - |
| 1777928336 | 16.67° C | 25% | 1027.8 hPa | - | - | - | - |
| 1777927436 | 16.67° C | 25% | 1027.7 hPa | - | - | - | - |
| 1777926535 | 16.67° C | 24% | 1027.7 hPa | - | - | - | - |
* Rain since midnight (hover to see other rain measurements)
** Current wind speed in m/s (hover to see current wind gust speed)